timestamp,wind_dir_avg,wind_spd_avg,wind_spd_max_dir,wind_spd_gust,battery_voltage,lat,long
2023-07-07 00:04:00+00:00,190.0,4.17,193.0,4.49,12.73,47.59359,-54.27349
2023-07-07 00:14:01+00:00,200.0,3.69,206.0,4.29,12.41,47.59359,-54.27349
2023-07-07 00:24:01+00:00,199.0,3.97,199.0,4.4,12.41,47.59359,-54.27349
2023-07-07 00:34:01+00:00,195.0,4.12,199.0,4.66,12.41,47.59359,-54.27349
2023-07-07 00:44:01+00:00,193.0,3.65,191.0,4.11,12.41,47.59359,-54.27349
2023-07-07 00:54:01+00:00,191.0,3.77,193.0,4.29,12.41,47.59359,-54.27349
2023-07-07 01:04:01+00:00,200.0,4.19,203.0,4.65,12.41,47.59359,-54.27349
2023-07-07 01:14:01+00:00,213.0,4.27,213.0,4.75,12.41,47.59359,-54.27349
2023-07-07 01:24:01+00:00,212.0,4.58,213.0,5.01,12.41,47.59359,-54.27349
2023-07-07 01:34:01+00:00,209.0,4.81,207.0,5.31,12.41,47.59359,-54.27349
2023-07-07 01:44:01+00:00,211.0,4.9,209.0,5.34,12.41,47.59359,-54.27349
2023-07-07 01:54:01+00:00,211.0,4.58,211.0,4.89,12.41,47.59359,-54.27349
2023-07-07 02:04:01+00:00,211.0,3.91,208.0,4.3,12.41,47.59359,-54.27349
2023-07-07 02:14:01+00:00,219.0,3.91,220.0,4.1,12.41,47.59359,-54.27349
2023-07-07 02:24:01+00:00,227.0,3.41,229.0,3.72,12.41,47.59359,-54.27349
2023-07-07 02:34:01+00:00,230.0,3.16,225.0,3.39,12.41,47.59359,-54.27349
2023-07-07 02:44:01+00:00,232.0,2.94,233.0,3.33,12.41,47.59359,-54.27349
2023-07-07 02:54:01+00:00,212.0,2.65,208.0,2.89,12.41,47.59359,-54.27349
2023-07-07 03:04:01+00:00,197.0,3.58,198.0,3.92,12.41,47.59359,-54.27349
2023-07-07 03:14:01+00:00,210.0,3.69,209.0,4.26,12.41,47.59359,-54.27349
2023-07-07 03:24:01+00:00,216.0,2.99,214.0,3.41,12.41,47.59359,-54.27349
2023-07-07 03:34:01+00:00,203.0,2.71,200.0,3.1,12.41,47.59359,-54.27349
2023-07-07 03:44:01+00:00,215.0,3.28,220.0,3.59,12.41,47.59359,-54.27349
2023-07-07 03:54:01+00:00,217.0,3.39,217.0,3.86,12.41,47.59359,-54.27349
2023-07-07 04:04:01+00:00,216.0,3.68,218.0,4.05,12.41,47.59359,-54.27349
2023-07-07 04:14:00+00:00,216.0,2.79,218.0,3.04,12.33,47.59359,-54.27349
2023-07-07 04:24:00+00:00,221.0,3.32,221.0,3.78,12.33,47.59359,-54.27349
2023-07-07 04:34:00+00:00,222.0,3.07,220.0,3.64,12.33,47.59359,-54.27349
2023-07-07 04:44:00+00:00,239.0,3.41,236.0,3.81,12.33,47.59359,-54.27349
2023-07-07 04:54:00+00:00,236.0,2.42,236.0,2.62,12.33,47.59359,-54.27349
2023-07-07 05:04:00+00:00,215.0,2.12,217.0,2.34,12.33,47.59359,-54.27349
2023-07-07 05:14:01+00:00,213.0,1.73,210.0,1.95,12.33,47.59359,-54.27349
2023-07-07 05:24:01+00:00,196.0,2.01,195.0,2.43,12.33,47.59359,-54.27349
2023-07-07 05:34:01+00:00,195.0,2.65,190.0,3.08,12.33,47.59359,-54.27349
2023-07-07 05:44:01+00:00,193.0,3.22,193.0,3.66,12.33,47.59359,-54.27349
2023-07-07 05:54:01+00:00,203.0,3.2,208.0,3.68,12.33,47.59359,-54.27349
2023-07-07 06:04:01+00:00,192.0,3.29,196.0,3.68,12.33,47.59359,-54.27349
2023-07-07 06:14:00+00:00,177.0,2.51,180.0,2.74,12.33,47.59359,-54.27349
2023-07-07 06:24:00+00:00,203.0,2.58,202.0,3.12,12.33,47.59359,-54.27349
2023-07-07 06:34:00+00:00,191.0,2.06,192.0,2.37,12.33,47.59359,-54.27349
2023-07-07 06:44:00+00:00,181.0,1.59,182.0,1.72,12.33,47.59359,-54.27349
2023-07-07 06:54:00+00:00,185.0,1.69,191.0,1.91,12.33,47.59359,-54.27349
2023-07-07 07:04:00+00:00,190.0,1.28,191.0,1.41,12.33,47.59359,-54.27349
2023-07-07 07:14:01+00:00,178.0,1.46,182.0,1.55,12.25,47.59359,-54.27349
2023-07-07 07:24:01+00:00,180.0,0.92,183.0,0.99,12.25,47.59359,-54.27349
2023-07-07 07:34:01+00:00,194.0,1.02,191.0,1.12,12.25,47.59359,-54.27349
2023-07-07 07:44:01+00:00,213.0,1.84,217.0,2.09,12.25,47.59359,-54.27349
2023-07-07 07:54:01+00:00,208.0,2.35,211.0,2.66,12.25,47.59359,-54.27349
2023-07-07 08:04:01+00:00,208.0,2.09,205.0,2.39,12.25,47.59359,-54.27349
2023-07-07 08:14:00+00:00,205.0,1.82,204.0,2.12,12.17,47.59359,-54.27349
2023-07-07 08:24:00+00:00,190.0,1.48,200.0,1.63,12.17,47.59359,-54.27349
2023-07-07 08:34:00+00:00,184.0,1.54,188.0,1.7,12.17,47.59359,-54.27349
2023-07-07 08:44:00+00:00,190.0,1.67,193.0,1.81,12.17,47.59359,-54.27349
2023-07-07 08:54:00+00:00,195.0,1.39,199.0,1.52,12.17,47.59359,-54.27349
2023-07-07 09:04:00+00:00,200.0,0.85,198.0,0.94,12.17,47.59359,-54.27349
2023-07-07 09:14:00+00:00,148.0,0.53,145.0,0.59,12.33,47.59359,-54.27349
2023-07-07 09:24:00+00:00,121.0,0.96,127.0,1.19,12.33,47.59359,-54.27349
2023-07-07 09:34:00+00:00,147.0,1.02,142.0,1.19,12.33,47.59359,-54.27349
2023-07-07 09:44:00+00:00,144.0,1.53,143.0,1.68,12.33,47.59359,-54.27349
2023-07-07 09:54:00+00:00,151.0,1.68,144.0,1.8,12.33,47.59359,-54.27349
2023-07-07 10:04:00+00:00,157.0,1.97,160.0,2.09,12.33,47.59359,-54.27349
2023-07-07 10:14:00+00:00,162.0,2.08,163.0,2.26,13.13,47.59359,-54.27349
2023-07-07 10:24:00+00:00,183.0,1.97,185.0,2.09,13.13,47.59359,-54.27349
2023-07-07 10:34:00+00:00,189.0,1.62,191.0,1.88,13.13,47.59359,-54.27349
2023-07-07 10:44:00+00:00,198.0,1.64,202.0,1.77,13.13,47.59359,-54.27349
2023-07-07 10:54:00+00:00,176.0,0.92,177.0,1.02,13.13,47.59359,-54.27349
2023-07-07 11:04:00+00:00,171.0,0.73,170.0,0.85,13.13,47.59359,-54.27349
2023-07-07 11:14:01+00:00,122.0,0.92,124.0,1.06,13.21,47.59359,-54.27349
2023-07-07 11:24:01+00:00,62.0,1.35,62.0,1.57,13.21,47.59359,-54.27349
2023-07-07 11:34:01+00:00,52.0,1.24,56.0,1.48,13.21,47.59359,-54.27349
2023-07-07 11:44:01+00:00,45.0,1.44,50.0,1.79,13.21,47.59359,-54.27349
2023-07-07 11:54:01+00:00,41.0,1.77,45.0,2.01,13.21,47.59359,-54.27349
2023-07-07 12:04:01+00:00,29.0,2.0,30.0,2.16,13.21,47.59359,-54.27349
2023-07-07 12:14:00+00:00,15.0,1.85,17.0,2.06,13.53,47.59359,-54.27349
2023-07-07 12:24:00+00:00,18.0,1.76,17.0,1.91,13.53,47.59359,-54.27349
2023-07-07 12:34:00+00:00,11.0,1.83,9.0,2.1,13.53,47.59359,-54.27349
2023-07-07 12:44:00+00:00,9.0,1.48,6.0,1.64,13.53,47.59359,-54.27349
2023-07-07 12:54:00+00:00,15.0,1.39,14.0,1.52,13.53,47.59359,-54.27349
2023-07-07 13:04:00+00:00,7.0,1.15,10.0,1.35,13.53,47.59359,-54.27349
2023-07-07 13:14:01+00:00,5.0,1.06,8.0,1.16,13.6,47.59359,-54.27349
2023-07-07 13:24:01+00:00,21.0,0.83,34.0,0.98,13.6,47.59359,-54.27349
2023-07-07 13:34:01+00:00,9.0,0.77,8.0,0.89,13.6,47.59359,-54.27349
2023-07-07 13:44:01+00:00,354.0,0.78,358.0,0.91,13.6,47.59359,-54.27349
2023-07-07 13:54:01+00:00,7.0,0.45,22.0,0.62,13.6,47.59359,-54.27349
2023-07-07 14:04:01+00:00,126.0,0.59,135.0,0.77,13.6,47.59359,-54.27349
2023-07-07 14:14:01+00:00,51.0,0.61,50.0,0.85,13.68,47.59359,-54.27349
2023-07-07 14:24:01+00:00,64.0,0.33,35.0,0.46,13.68,47.59359,-54.27349
2023-07-07 14:34:01+00:00,132.0,1.22,133.0,1.59,13.68,47.59359,-54.27349
2023-07-07 14:44:01+00:00,155.0,1.16,146.0,1.48,13.68,47.59359,-54.27349
2023-07-07 14:54:01+00:00,187.0,0.72,185.0,0.8,13.68,47.59359,-54.27349
2023-07-07 15:04:01+00:00,261.0,1.22,265.0,1.44,13.68,47.59359,-54.27349
2023-07-07 15:14:00+00:00,253.0,2.27,255.0,2.49,13.44,47.59359,-54.27349
2023-07-07 15:24:00+00:00,257.0,2.32,260.0,2.49,13.44,47.59359,-54.27349
2023-07-07 15:34:00+00:00,247.0,2.33,249.0,2.46,13.44,47.59359,-54.27349
2023-07-07 15:44:00+00:00,239.0,2.39,236.0,2.58,13.44,47.59359,-54.27349
2023-07-07 15:54:00+00:00,230.0,2.88,228.0,3.06,13.44,47.59359,-54.27349
2023-07-07 16:04:00+00:00,224.0,3.7,225.0,4.04,13.44,47.59359,-54.27349
2023-07-07 16:14:00+00:00,217.0,3.66,217.0,3.98,13.92,47.59359,-54.27349
2023-07-07 16:24:00+00:00,315.0,0.01,220.0,0.0,13.92,47.59359,-54.27349
2023-07-07 16:34:00+00:00,207.0,4.03,208.0,4.45,13.92,47.59359,-54.27349
2023-07-07 16:44:00+00:00,214.0,5.13,216.0,5.54,13.92,47.59359,-54.27349
2023-07-07 16:54:00+00:00,215.0,4.93,216.0,5.13,13.92,47.59359,-54.27349
2023-07-07 17:04:00+00:00,202.0,4.24,205.0,4.65,13.92,47.59359,-54.27349
2023-07-07 17:14:00+00:00,204.0,4.87,204.0,5.72,14.16,47.59359,-54.27349
2023-07-07 17:24:00+00:00,198.0,5.21,198.0,5.83,14.16,47.59359,-54.27349
2023-07-07 17:34:00+00:00,201.0,5.66,201.0,6.2,14.16,47.59359,-54.27349
2023-07-07 17:44:00+00:00,201.0,6.39,199.0,7.07,14.16,47.59359,-54.27349
2023-07-07 17:54:00+00:00,199.0,6.05,198.0,6.81,14.16,47.59359,-54.27349
2023-07-07 18:04:00+00:00,195.0,5.46,192.0,6.41,14.16,47.59359,-54.27349
2023-07-07 18:14:00+00:00,207.0,7.66,208.0,8.17,13.84,47.59359,-54.27349
2023-07-07 18:24:00+00:00,209.0,7.57,208.0,8.15,13.84,47.59359,-54.27349
2023-07-07 18:34:00+00:00,215.0,8.53,231.0,11.39,13.84,47.59359,-54.27349
2023-07-07 18:44:00+00:00,205.0,8.05,215.0,9.19,13.84,47.59359,-54.27349
2023-07-07 18:54:00+00:00,208.0,8.03,217.0,9.47,13.84,47.59359,-54.27349
2023-07-07 19:04:00+00:00,227.0,9.63,231.0,11.79,13.84,47.59359,-54.27349
2023-07-07 19:14:00+00:00,216.0,7.38,223.0,8.9,13.68,47.59359,-54.27349
2023-07-07 19:24:00+00:00,203.0,6.61,202.0,7.26,13.68,47.59359,-54.27349
2023-07-07 19:34:00+00:00,207.0,7.43,209.0,8.22,13.68,47.59359,-54.27349
2023-07-07 19:44:00+00:00,203.0,7.67,205.0,8.4,13.68,47.59359,-54.27349
2023-07-07 19:54:00+00:00,202.0,7.15,203.0,8.01,13.68,47.59359,-54.27349
2023-07-07 20:04:00+00:00,207.0,7.52,203.0,8.4,13.68,47.59359,-54.27349
2023-07-07 20:14:00+00:00,206.0,7.44,207.0,8.1,13.68,47.59359,-54.27349
2023-07-07 20:24:00+00:00,205.0,6.59,204.0,7.21,13.68,47.59359,-54.27349
2023-07-07 20:34:00+00:00,198.0,5.52,198.0,6.16,13.68,47.59359,-54.27349
2023-07-07 20:44:00+00:00,200.0,4.35,202.0,5.25,13.68,47.59359,-54.27349
2023-07-07 20:54:00+00:00,183.0,3.85,183.0,5.4,13.68,47.59359,-54.27349
2023-07-07 21:04:00+00:00,175.0,3.07,179.0,3.8,13.68,47.59359,-54.27349
2023-07-07 21:14:00+00:00,185.0,3.41,189.0,3.83,13.37,47.59359,-54.27349
2023-07-07 21:24:00+00:00,196.0,4.18,192.0,4.54,13.37,47.59359,-54.27349
2023-07-07 21:34:00+00:00,209.0,4.72,214.0,5.66,13.37,47.59359,-54.27349
2023-07-07 21:44:00+00:00,209.0,4.96,210.0,5.45,13.37,47.59359,-54.27349
2023-07-07 21:54:00+00:00,202.0,4.81,201.0,5.28,13.37,47.59359,-54.27349
2023-07-07 22:04:00+00:00,206.0,5.32,205.0,5.89,13.37,47.59359,-54.27349
2023-07-07 22:14:00+00:00,207.0,3.77,205.0,4.37,13.21,47.59359,-54.27349
2023-07-07 22:24:00+00:00,215.0,4.4,217.0,4.77,13.21,47.59359,-54.27349
2023-07-07 22:34:00+00:00,215.0,5.01,217.0,5.55,13.21,47.59359,-54.27349
2023-07-07 22:44:00+00:00,222.0,4.92,223.0,5.75,13.21,47.59359,-54.27349
2023-07-07 22:54:00+00:00,188.0,4.18,197.0,5.07,13.21,47.59359,-54.27349
2023-07-07 23:04:00+00:00,209.0,4.37,226.0,5.82,13.21,47.59359,-54.27349
2023-07-07 23:14:00+00:00,214.0,5.43,215.0,5.74,12.73,47.59359,-54.27349
2023-07-07 23:24:00+00:00,215.0,5.18,215.0,5.49,12.73,47.59359,-54.27349
2023-07-07 23:34:00+00:00,197.0,4.26,214.0,5.27,12.73,47.59359,-54.27349
2023-07-07 23:44:00+00:00,196.0,4.12,200.0,4.86,12.73,47.59359,-54.27349
2023-07-07 23:54:00+00:00,216.0,5.27,216.0,5.66,12.73,47.59359,-54.27349
